(191284) = 2003 FA36 = 2004 RQ40

Discovered at Kitt Peak on 2003-03-23 by Spacewatch.

Orbit

Orbit type: Main Belt

Note: WebGL enabled browser required.

epoch2023-09-13.0
epoch JD2460200.5
perihelion date2022-05-20.26502
perihelion JD2459719.76502
argument of perihelion (°)41.68917
ascending node (°)181.77377
inclination (°)3.01506
eccentricity0.1243471
perihelion distance (AU)2.1216252
Tisserand w.r.t. Jupiter3.5
ΔV w.r.t. Earth (km/sec)9.1
semimajor axis (AU)2.4229068
mean anomaly (°)125.63323
mean daily motion (°/day)0.26133570
aphelion distance (AU)2.724
period (years)3.77
P-vector [x]-0.72584792
P-vector [y]-0.64419342
P-vector [z]-0.24116310
Q-vector [x]0.68785329
Q-vector [y]-0.68060246
Q-vector [z]-0.25226601
absolute magnitude16.9
phase slope0.15
uncertainty0
referenceMPO 778290
observations used482
oppositions17
arc length (days)8970
first opposition used1999
last opposition used2023
residual rms (arc-secs)0.70
perturbers coarse indicatorM-v
perturbers precise indicator003Ek
first observation date used1999-04-19.0
last observation date used2023-11-09.0
computer nameMPCLINUX
JD of orbit computation2456760.664531
perihelion JD uncertainty (days)9.2277E-05
argument of perihelion uncertainty (°)8.2567E-05
ascending node uncertainty (°)7.9479E-05
inclination uncertainty (°)6.0891E-06
eccentricity uncertainty 4.7275E-08
perihelion distance uncertainty (AU)1.1640E-07
Minimum Orbit Intersection Distances (in AU)
for orbit epoch: 2460200.5, reference: E2023-VG7
Mercury1.66811
Venus1.39812
Earth1.11309
Mars0.5205
Jupiter2.24534
Saturn6.39128
Uranus16.1553
Neptune27.12

Observations

501 total observations over interval: 1999 04 19.12956 – 2023 11 09.297899
These data are available for download (format description).

Date (UT) J2000 RA J2000 Dec Magn Location Ref
1999 04 19.12956 09 39 04.51 +12 54 17.5 20.7 V 691 – Steward Observatory, Kitt Peak-Spacewatch MPS 115251
1999 04 19.15175 09 39 05.07 +12 54 16.7 20.7 V 691 – Steward Observatory, Kitt Peak-Spacewatch MPS 115251
1999 04 19.17454 09 39 05.64 +12 54 15.5 20.7 V 691 – Steward Observatory, Kitt Peak-Spacewatch MPS 115251
2003 03 23.37478 12 31 04.46 -02 58 55.1 19.0 V 691 – Steward Observatory, Kitt Peak-Spacewatch MPS 76326
2003 03 23.40473 12 31 02.90 -02 58 41.8 18.8 V 691 – Steward Observatory, Kitt Peak-Spacewatch MPS 76326
2003 03 23.43948 12 31 01.09 -02 58 26.5 19.4 V 691 – Steward Observatory, Kitt Peak-Spacewatch MPS 76326
2003 03 26.30102 12 28 38.06 -02 37 07.8 18.4 V 691 – Steward Observatory, Kitt Peak-Spacewatch MPS 76326
2003 03 26.35029 12 28 35.46 -02 36 45.3 19.1 V 691 – Steward Observatory, Kitt Peak-Spacewatch MPS 76326
2003 03 26.37780 12 28 33.99 -02 36 32.9 18.9 V 691 – Steward Observatory, Kitt Peak-Spacewatch MPS 76326
2003 03 31.20024 12 24 28.68 -02 00 06.5 19.0 R 699 – Lowell Observatory-LONEOS MPS 78358
2003 03 31.21690 12 24 27.83 -01 59 58.9   699 – Lowell Observatory-LONEOS MPS 78358
2003 03 31.22584 12 24 27.37 -01 59 54.3 19.2   704 – Lincoln Laboratory ETS, New Mexico MPS 76326
2003 03 31.22595 12 24 27.37 -01 59 54.5 18.9   704 – Lincoln Laboratory ETS, New Mexico MPS 76326
2003 03 31.22606 12 24 27.32 -01 59 54.6 18.9   704 – Lincoln Laboratory ETS, New Mexico MPS 76326
2003 03 31.23349 12 24 26.97 -01 59 50.7   699 – Lowell Observatory-LONEOS MPS 78358
2003 03 31.23740 12 24 26.80 -01 59 49.1 19.8   704 – Lincoln Laboratory ETS, New Mexico MPS 76326
2003 03 31.23751 12 24 26.75 -01 59 48.7 19.4   704 – Lincoln Laboratory ETS, New Mexico MPS 76326
2003 03 31.23762 12 24 26.75 -01 59 49.6 19.4   704 – Lincoln Laboratory ETS, New Mexico MPS 76326
2003 03 31.24894 12 24 26.12 -01 59 44.1 19.5   704 – Lincoln Laboratory ETS, New Mexico MPS 76326
2003 03 31.24905 12 24 26.11 -01 59 44.3 18.8   704 – Lincoln Laboratory ETS, New Mexico MPS 76326
2003 03 31.24916 12 24 26.18 -01 59 44.4 19.4   704 – Lincoln Laboratory ETS, New Mexico MPS 76326
2003 03 31.25011 12 24 26.09 -01 59 43.9   699 – Lowell Observatory-LONEOS MPS 78358
2003 03 31.26053 12 24 25.57 -01 59 39.6 20.1   704 – Lincoln Laboratory ETS, New Mexico MPS 76326
2003 03 31.26064 12 24 25.47 -01 59 39.1 19.4   704 – Lincoln Laboratory ETS, New Mexico MPS 76326
2003 03 31.27270 12 24 24.85 -01 59 33.6 19.8   704 – Lincoln Laboratory ETS, New Mexico MPS 76326
2003 03 31.27281 12 24 24.82 -01 59 33.2 20.2   704 – Lincoln Laboratory ETS, New Mexico MPS 76326
2003 04 01.29458 12 23 32.77 -01 51 51.5 19.2   704 – Lincoln Laboratory ETS, New Mexico MPS 76326
2003 04 01.30615 12 23 32.22 -01 51 46.5 19.0   704 – Lincoln Laboratory ETS, New Mexico MPS 76326
2003 04 01.31778 12 23 31.57 -01 51 41.2 19.0   704 – Lincoln Laboratory ETS, New Mexico MPS 76326
2003 04 01.32933 12 23 30.93 -01 51 35.7 18.9   704 – Lincoln Laboratory ETS, New Mexico MPS 76326
2003 04 01.34091 12 23 30.32 -01 51 30.3 19.1   704 – Lincoln Laboratory ETS, New Mexico MPS 76326
2003 04 07.22558 12 18 39.15 -01 08 10.0 19.7 V 691 – Steward Observatory, Kitt Peak-Spacewatch MPS 76326
2003 04 07.25176 12 18 37.83 -01 07 58.8 19.8 V 691 – Steward Observatory, Kitt Peak-Spacewatch MPS 76326
2003 04 07.27877 12 18 36.45 -01 07 47.4 20.4 V 691 – Steward Observatory, Kitt Peak-Spacewatch MPS 76326
2003 04 26.14423 12 06 54.68 +00 41 21.5 20.1 V 691 – Steward Observatory, Kitt Peak-Spacewatch MPS 78358
2003 04 26.17157 12 06 53.96 +00 41 28.0 19.8 V 691 – Steward Observatory, Kitt Peak-Spacewatch MPS 78358
2003 04 26.20007 12 06 53.24 +00 41 34.9 20.3 V 691 – Steward Observatory, Kitt Peak-Spacewatch MPS 78358
2004 09 07.34127 23 10 34.09 -03 50 18.6 20.1 V 691 – Steward Observatory, Kitt Peak-Spacewatch MPS 112849
2004 09 07.36837 23 10 32.60 -03 50 29.7 20.3 V 691 – Steward Observatory, Kitt Peak-Spacewatch MPS 112849
2004 09 07.39741 23 10 31.02 -03 50 41.4 19.8 V 691 – Steward Observatory, Kitt Peak-Spacewatch MPS 112849
2004 09 09.19287 23 08 55.95 -04 03 03.3 19.7   704 – Lincoln Laboratory ETS, New Mexico MPS 112849
2004 09 09.20402 23 08 55.39 -04 03 07.5 20.0   704 – Lincoln Laboratory ETS, New Mexico MPS 112849
2004 09 09.21581 23 08 54.65 -04 03 12.9 20.1   704 – Lincoln Laboratory ETS, New Mexico MPS 112849
2004 09 09.22716 23 08 54.03 -04 03 17.6 20.2   704 – Lincoln Laboratory ETS, New Mexico MPS 112849
2004 10 08.11516 22 48 02.89 -06 52 45.5 21.0 V 691 – Steward Observatory, Kitt Peak-Spacewatch MPS 115779
2004 10 08.13244 22 48 02.40 -06 52 50.0 20.9 V 691 – Steward Observatory, Kitt Peak-Spacewatch MPS 115779
2004 10 08.14933 22 48 01.92 -06 52 54.1 20.5 V 691 – Steward Observatory, Kitt Peak-Spacewatch MPS 115779
2006 01 28.21771 05 05 40.63 +18 37 33.0 20.7 V G96 – Mt. Lemmon Survey MPS 161754
2006 01 28.22438 05 05 40.48 +18 37 33.5 20.4 V G96 – Mt. Lemmon Survey MPS 161754
2006 01 28.23101 05 05 40.41 +18 37 34.3 20.5 V G96 – Mt. Lemmon Survey MPS 161754
2006 01 28.23769 05 05 40.34 +18 37 34.6 21.2 V G96 – Mt. Lemmon Survey MPS 161754
2007 02 26.47545 15 19 05.55 -16 43 14.6 20.9 V G96 – Mt. Lemmon Survey MPS 201487
2007 02 26.48448 15 19 06.06 -16 43 15.4 20.7 V G96 – Mt. Lemmon Survey MPS 201487
2007 02 26.49358 15 19 06.56 -16 43 16.0 20.9 V G96 – Mt. Lemmon Survey MPS 201487
2007 02 26.50253 15 19 06.99 -16 43 17.4 19.0 V G96 – Mt. Lemmon Survey MPS 201487
2007 03 14.44580 15 32 05.64 -16 56 49.9 20.8 V G96 – Mt. Lemmon Survey MPS 203001
2007 03 14.45357 15 32 05.89 -16 56 50.1 20.8 V G96 – Mt. Lemmon Survey MPS 203001
2007 03 14.46142 15 32 06.18 -16 56 49.9 20.1 V G96 – Mt. Lemmon Survey MPS 203001
2007 03 14.46919 15 32 06.43 -16 56 49.7 20.1 V G96 – Mt. Lemmon Survey MPS 203001
2007 04 18.39047 15 33 19.58 -15 32 31.5 20.5 V 691 – Steward Observatory, Kitt Peak-Spacewatch MPS 206863
2007 04 18.40816 15 33 18.96 -15 32 26.6 20.6 V 691 – Steward Observatory, Kitt Peak-Spacewatch MPS 206863
2007 04 18.42582 15 33 18.35 -15 32 22.2 19.9 V 691 – Steward Observatory, Kitt Peak-Spacewatch MPS 206863
2007 04 22.39588 15 30 58.84 -15 14 17.6 19.9 V 691 – Steward Observatory, Kitt Peak-Spacewatch MPS 208035
2007 04 22.41503 15 30 58.14 -15 14 11.6 19.6 V 691 – Steward Observatory, Kitt Peak-Spacewatch MPS 208035
2007 04 22.43468 15 30 57.27 -15 14 06.7 19.6 V 691 – Steward Observatory, Kitt Peak-Spacewatch MPS 208035
2007 05 06.54636 15 19 59.20 -14 03 21.3 19.0 R D29 – Purple Mountain Observatory, XuYi Station MPS 208869
2007 05 06.56744 15 19 57.99 -14 03 15.1 18.8 R D29 – Purple Mountain Observatory, XuYi Station MPS 208869
2007 05 06.58884 15 19 56.88 -14 03 08.0 18.6 R D29 – Purple Mountain Observatory, XuYi Station MPS 208869
2007 05 06.60879 15 19 55.75 -14 03 02.5 19.0 R D29 – Purple Mountain Observatory, XuYi Station MPS 208869
2007 05 07.35581 15 19 16.06 -13 59 11.4 18.7 V 703 – Catalina Sky Survey MPS 208869
2007 05 07.36451 15 19 15.49 -13 59 10.1 19.3 V 703 – Catalina Sky Survey MPS 208869
2007 05 07.37319 15 19 15.02 -13 59 07.3 19.1 V 703 – Catalina Sky Survey MPS 208869
2007 05 07.38191 15 19 14.55 -13 59 04.5 19.0 V 703 – Catalina Sky Survey MPS 208869
2007 05 08.26325 15 18 28.12 -13 54 33.1 18.6 R 699 – Lowell Observatory-LONEOS MPS 208869
2007 05 08.28149 15 18 27.06 -13 54 27.6   699 – Lowell Observatory-LONEOS MPS 208869
2007 05 08.29974 15 18 26.02 -13 54 22.0   699 – Lowell Observatory-LONEOS MPS 208869
2007 05 08.31801 15 18 25.01 -13 54 16.9   699 – Lowell Observatory-LONEOS MPS 208869
2007 05 11.28855 15 15 45.68 -13 39 13.9 18.5 V G96 – Mt. Lemmon Survey MPS 208869
2007 05 11.29567 15 15 45.28 -13 39 11.7 18.5 V G96 – Mt. Lemmon Survey MPS 208869
2007 05 11.30273 15 15 44.89 -13 39 09.6 18.5 V G96 – Mt. Lemmon Survey MPS 208869
2007 05 11.30979 15 15 44.49 -13 39 07.4 18.6 V G96 – Mt. Lemmon Survey MPS 208869
2007 05 13.29915 15 13 57.33 -13 29 16.5 18.6   704 – Lincoln Laboratory ETS, New Mexico MPS 208869
2007 05 13.30865 15 13 56.73 -13 29 12.6 18.8   704 – Lincoln Laboratory ETS, New Mexico MPS 208869
2007 05 13.31799 15 13 56.26 -13 29 09.7 19.0   704 – Lincoln Laboratory ETS, New Mexico MPS 208869
